[[{"header":{"parameterUnit":"m.s-1","parameterCategory":1,"la1":30.2991,"la2":30.254,"lo1":-89.0895,"lo2":-89.0444,"dy":0.0017,"dx":0.0017,"nx":28,"ny":28,"refTime":"2024-04-08T09:00:00:Z","depth":0,"parameterNumber":2,"parameterNumberName":"U-component_of_WINDS"},"data":[0,0,0,0,0,0,0,0,0,0,0,0,0,0,0,0,0,0,0,0,0,0,0,0,0,0,0,0,0,0,0,0,0,0,0,0,0,0,0,0,0,0,0,0,0,0,0,0,0,0,0,0,0,0,0,0,0,0,-4.6731,-4.6732,0,-4.6819,-4.682,-4.6821,-4.683,-4.6829,-4.6828,-4.6827,-4.6916,-4.6919,-4.6923,0,0,0,0,0,0,0,0,0,0,0,0,0,-4.6571,-4.6574,-4.6731,-4.6732,-4.6733,-4.6819,-4.682,-4.6821,-4.683,-4.6829,-4.6828,-4.6827,-4.6915,-4.6919,-4.6923,0,0,0,0,0,0,0,0,0,0,0,0,0,-4.6648,-4.6575,-4.6731,-4.6748,-4.675,-4.6819,-4.682,-4.6822,-4.683,-4.6829,-4.6827,-4.6826,-4.6914,-4.6919,-4.6923,-4.6981,0,0,-4.6938,-4.694,0,0,0,0,0,0,0,0,-4.6644,-4.6654,-4.6744,-4.6747,-4.675,-4.6812,-4.6797,-4.6875,-4.683,-4.68,-4.6827,-4.6825,-4.6883,-4.689,-4.6909,-4.6985,-4.6989,-4.6939,-4.6942,-4.6944,-4.6945,0,0,0,0,0,0,0,-4.6638,-4.665,-4.6766,-4.6746,-4.6749,-4.6751,-4.6761,-4.6812,-4.6848,-4.6802,-4.6803,-4.6813,-4.6884,-4.6905,-4.6912,-4.699,-4.6938,-4.6943,-4.6946,-4.6948,-4.7118,-4.712,0,0,0,0,0,0,-4.663,-4.6646,-4.6763,-4.6769,-4.6692,-4.6755,-4.6766,-4.6793,-4.6847,-4.6854,-4.6815,-4.6814,-4.6897,-4.6906,-4.6915,-4.6985,-4.6944,-4.6948,-4.6951,-4.7117,-4.7119,-4.7121,0,0,0,0,0,0,-4.6626,-4.664,-4.676,-4.6707,-4.6723,-4.676,-4.679,-4.6796,-4.6817,-4.6857,-4.6863,-4.6829,-4.6896,-4.6908,-4.6965,-4.6989,-4.695,-4.6955,-4.7115,-4.7117,-4.712,-4.7127,0,0,0,0,0,0,-4.6622,-4.6639,-4.6661,-4.6708,-4.6726,-4.6808,-4.6792,-4.6799,-4.6825,-4.6825,-4.6872,-4.6878,-4.6896,-4.6957,-4.6969,-4.6995,-4.6959,-4.7113,-4.7116,-4.7119,-4.7125,-4.7129,-4.7133,0,0,0,0,0,-4.6616,-4.6659,-4.6662,-4.6676,-4.6754,-4.6809,-4.6819,-4.6839,-4.6827,-4.6849,-4.6875,-4.6877,-4.6985,-4.6963,-4.6977,-4.7004,-4.7111,-4.7115,-4.7119,-4.7123,-4.7128,-4.7133,0,0,0,0,0,0,-4.6613,-4.6665,-4.6669,-4.6728,-4.6764,-4.681,-4.6839,-4.6844,-4.6884,-4.6881,-4.6904,-4.6915,-4.6971,-4.6993,-4.6968,-4.7063,-4.7047,-4.7053,-4.7045,-4.7051,-4.7055,-4.7048,-4.6963,0,0,0,0,0,-4.6619,-4.666,-4.6704,-4.6752,-4.677,-4.6801,-4.6826,-4.6839,-4.6877,-4.6892,-4.6921,-4.6958,-4.7,-4.7027,-4.7068,-4.7129,-4.7139,-4.7155,-4.7159,-4.7162,-4.7167,-4.7201,-4.7208,-4.7133,-4.7132,-4.7132,0,0,-4.6632,-4.6666,-4.669,-4.6752,-4.6781,-4.6823,-4.6814,-4.6858,-4.6889,-4.6898,-4.6953,-4.6977,-4.702,-4.7079,-4.7106,-4.7099,-4.7191,-4.7167,-4.7169,-4.7172,-4.7206,-4.7213,-4.7219,-4.7135,-4.7135,-4.7134,0,0,-4.6677,-4.6707,-4.675,-4.678,-4.6825,-4.6846,-4.6857,-4.6903,-4.6919,-4.6975,-4.6983,-4.7021,-4.7093,-4.7123,-4.7148,-4.7207,-4.721,-4.722,-4.7241,-4.7274,-4.728,-4.7286,-4.7306,-4.7313,-4.7225,-4.7225,-4.7225,0,-4.6687,-4.675,-4.6772,-4.6816,-4.6843,-4.6855,-4.69,-4.6928,-4.6983,-4.7002,-4.6994,-4.7086,-4.7115,-4.7181,-4.7196,-4.7216,-4.7229,-4.7213,-4.7278,-4.7283,-4.7289,-4.7308,-4.7316,-4.7226,-4.7226,-4.7226,-4.7226,0,-4.676,-4.6804,-4.6834,-4.6888,-4.6919,-4.6963,-4.6992,-4.7021,-4.7032,-4.7054,-4.7111,-4.7148,-4.7197,-4.7214,-4.7224,-4.7282,-4.7276,-4.7273,-4.7257,-4.7296,-4.7315,-4.7323,-4.7227,-4.7227,-4.7227,-4.7226,0,0,-4.6802,-4.687,-4.688,-4.6905,-4.6956,-4.6991,-4.7036,-4.7085,-4.7108,-4.7148,-4.7186,-4.7248,-4.7246,-4.7274,-4.7289,-4.7318,-4.7362,-4.7311,-4.7312,-4.7318,-4.7427,-4.7428,-4.7436,-4.7365,-4.7367,-4.7368,-4.7423,0,-4.6851,-4.6932,-4.6954,-4.7022,-4.7063,-4.7076,-4.7116,-4.7152,-4.7175,-4.7213,-4.7239,-4.7282,-4.7276,-4.7293,-4.7323,-4.735,-4.7384,-4.7347,-4.74,-4.7402,-4.7387,-4.7446,-4.7447,-4.7496,-4.7431,-4.7432,-4.7433,0,-4.6918,-4.6959,-4.7031,-4.7079,-4.7097,-4.7132,-4.7178,-4.7215,-4.7257,-4.7272,-4.7304,-4.7317,-4.7365,-4.7349,-4.7416,-4.739,-4.7414,-4.7432,-4.7434,-4.7438,-4.7418,-4.745,-4.7513,-4.7519,-4.7445,-4.7444,-4.7443,0,-4.694,-4.7013,-4.7066,-4.7087,-4.7144,-4.7169,-4.7194,-4.7234,-4.7262,-4.7304,-4.7322,-4.7369,-4.7394,-4.743,-4.7455,-4.7441,-4.7519,-4.7505,-4.7532,-4.7532,-4.7546,-4.7544,-4.7612,-4.7565,-4.7565,-4.7565,-4.7565,0,-4.6991,-4.7034,-4.7077,-4.7109,-4.7158,-4.7185,-4.7233,-4.7258,-4.7295,-4.7333,-4.7348,-4.7383,-4.7415,-4.7455,-4.7475,-4.7527,-4.7539,-4.7552,-4.7556,-4.7549,-4.7547,-4.7563,-4.7559,-4.7567,-4.7566,-4.7566,-4.7566,0,-4.7022,-4.7052,-4.7111,-4.716,-4.7174,-4.7208,-4.7251,-4.7283,-4.7308,-4.7355,-4.7368,-4.7406,-4.7454,-4.7484,-4.7544,-4.7558,-4.7615,-4.7619,-4.76,-4.7602,-4.7627,-4.7623,-4.7705,-4.7717,-4.7664,-4.7664,-4.7665,0,-4.7052,-4.7086,-4.714,-4.7166,-4.7191,-4.7234,-4.7263,-4.7291,-4.7321,-4.7372,-4.7398,-4.7447,-4.7487,-4.7563,-4.7596,-4.7643,-4.7647,-4.7673,-4.7654,-4.7646,-4.7646,-4.7643,-4.7646,-4.7675,-4.7675,-4.7676,-4.7676,0,-4.7101,-4.7114,-4.7156,-4.7203,-4.7237,-4.7275,-4.7314,-4.7335,-4.737,-4.7403,-4.7452,-4.7483,-4.7546,-4.7594,-4.7644,-4.767,-4.7679,-4.7682,-4.7691,-4.7683,-4.767,-4.7676,-4.7606,-4.7679,-4.7679,-4.7679,-4.7679,-4.7679,-4.7131,-4.7162,-4.7205,-4.725,-4.7283,-4.7318,-4.7351,-4.738,-4.7422,-4.7475,-4.749,-4.7541,-4.7584,-4.7652,-4.7679,-4.772,-4.7716,-4.7729,-4.7732,-4.7734,-4.7734,-4.7665,-4.773,-4.773,-4.773,-4.773,-4.773,0,-4.7179,-4.7208,-4.725,-4.7304,-4.734,-4.7347,-4.739,-4.742,-4.7465,-4.7504,-4.7544,-4.7601,-4.7648,-4.7687,-4.7736,-4.7761,-4.7766,-4.7773,-4.777,-4.7776,-4.7735,-4.7722,-4.7767,-4.7767,-4.7767,-4.7767,-4.7767,-4.7767,-4.7209,-4.7261,-4.728,-4.7349,-4.7378,-4.7428,-4.7452,-4.7485,-4.7517,-4.758,-4.7619,-4.7644,-4.7684,-4.7736,-4.778,-4.779,-4.7807,-4.7812,-4.7823,-4.7783,-4.7779,-4.7774,-4.7762,-4.7816,-4.7816,-4.786,-4.786,-4.7861]},{"header":{"parameterUnit":"m.s-1","parameterCategory":1,"la1":30.2991,"la2":30.254,"lo1":-89.0895,"lo2":-89.0444,"dy":0.0017,"dx":0.0017,"nx":28,"ny":28,"refTime":"2024-04-08T09:00:00:Z","depth":0,"parameterNumber":3,"parameterNumberName":"V-component_of_WINDS"},"data":[0,0,0,0,0,0,0,0,0,0,0,0,0,0,0,0,0,0,0,0,0,0,0,0,0,0,0,0,0,0,0,0,0,0,0,0,0,0,0,0,0,0,0,0,0,0,0,0,0,0,0,0,0,0,0,0,0,0,5.3907,5.3907,0,5.3947,5.3948,5.3948,5.3914,5.3913,5.3911,5.391,5.3949,5.3951,5.3953,0,0,0,0,0,0,0,0,0,0,0,0,0,5.3799,5.3801,5.3907,5.3907,5.3908,5.3947,5.3948,5.3948,5.3915,5.3913,5.3911,5.391,5.3948,5.395,5.3953,0,0,0,0,0,0,0,0,0,0,0,0,0,5.3843,5.3801,5.3907,5.3896,5.3895,5.3947,5.3948,5.3948,5.3915,5.3913,5.3911,5.3909,5.3947,5.395,5.3954,5.4017,0,0,5.3964,5.3966,0,0,0,0,0,0,0,0,5.384,5.3847,5.3897,5.3897,5.3896,5.3924,5.3924,5.3971,5.3915,5.3907,5.391,5.3908,5.3942,5.3945,5.3958,5.4019,5.4021,5.3965,5.3967,5.3968,5.3969,0,0,0,0,0,0,0,5.3837,5.3845,5.3923,5.3898,5.3897,5.3888,5.3892,5.3933,5.3936,5.3908,5.3905,5.3911,5.3941,5.3954,5.3958,5.4021,5.3965,5.3968,5.397,5.3971,5.414,5.4142,0,0,0,0,0,0,5.3836,5.3843,5.3921,5.3924,5.3863,5.3892,5.3896,5.3917,5.3935,5.3936,5.3913,5.3909,5.3949,5.3954,5.3959,5.4037,5.3968,5.3972,5.3974,5.4138,5.414,5.4143,0,0,0,0,0,0,5.3834,5.3843,5.392,5.3883,5.3892,5.3896,5.3919,5.3919,5.3932,5.3939,5.3939,5.3926,5.3948,5.3955,5.4004,5.4038,5.3973,5.3976,5.4135,5.4138,5.4142,5.4192,0,0,0,0,0,0,5.3831,5.3843,5.3867,5.3884,5.3894,5.3964,5.3921,5.3921,5.3939,5.3934,5.3951,5.3952,5.3947,5.3999,5.4008,5.4041,5.3979,5.4132,5.4136,5.4141,5.4187,5.4196,5.4205,0,0,0,0,0,5.3827,5.3878,5.3868,5.3878,5.3925,5.3966,5.3972,5.3966,5.3941,5.3966,5.3971,5.3951,5.4033,5.4004,5.4014,5.4049,5.413,5.4135,5.414,5.4183,5.4195,5.4204,0,0,0,0,0,0,5.3863,5.388,5.3869,5.3927,5.3946,5.396,5.3991,5.3978,5.4002,5.3997,5.3988,5.3992,5.4045,5.4052,5.402,5.4113,5.4077,5.4085,5.4107,5.4118,5.4126,5.4123,5.3982,0,0,0,0,0,5.3879,5.3912,5.3924,5.3974,5.3984,5.3986,5.4004,5.3998,5.4016,5.4023,5.4032,5.4049,5.4079,5.4099,5.4126,5.4188,5.4192,5.4217,5.4226,5.4233,5.424,5.4275,5.4287,5.4161,5.4161,5.4161,0,0,5.3909,5.3923,5.3944,5.3982,5.3995,5.403,5.3993,5.403,5.4055,5.4028,5.4077,5.4084,5.4103,5.4159,5.4185,5.4167,5.4276,5.424,5.4246,5.4248,5.4282,5.4294,5.4304,5.4164,5.4164,5.4163,0,0,5.3984,5.3997,5.4041,5.4056,5.4078,5.4079,5.409,5.4107,5.4112,5.416,5.4141,5.4171,5.4222,5.4237,5.4252,5.4335,5.4319,5.4344,5.439,5.4424,5.4434,5.4443,5.4474,5.4485,5.4351,5.4351,5.4351,0,5.4019,5.4071,5.4065,5.4105,5.4123,5.4102,5.4147,5.4162,5.4191,5.4204,5.4184,5.4249,5.426,5.4321,5.4342,5.4354,5.4366,5.4342,5.4434,5.4442,5.445,5.448,5.4491,5.4354,5.4353,5.4353,5.4353,0,5.4114,5.415,5.4183,5.4215,5.4236,5.4278,5.4279,5.4301,5.4294,5.4298,5.4349,5.4362,5.4393,5.4407,5.4399,5.4467,5.4456,5.4435,5.4399,5.4466,5.4493,5.4504,5.4358,5.4357,5.4356,5.4355,0,0,5.4211,5.424,5.4253,5.4268,5.4291,5.4319,5.4361,5.4393,5.4413,5.4434,5.4469,5.4515,5.4496,5.4513,5.4507,5.4537,5.4604,5.4512,5.4513,5.453,5.4682,5.4698,5.4711,5.4594,5.4596,5.4597,5.4681,0,5.4287,5.4361,5.4358,5.4427,5.4462,5.4444,5.448,5.4499,5.4504,5.4534,5.4539,5.4572,5.4544,5.4554,5.4584,5.459,5.4635,5.4584,5.4626,5.4628,5.4623,5.4725,5.4742,5.482,5.4691,5.4693,5.4694,0,5.4385,5.4413,5.4486,5.4507,5.4521,5.4554,5.4585,5.4613,5.4634,5.4636,5.4656,5.4646,5.4689,5.4652,5.4711,5.4676,5.4694,5.47,5.4703,5.4707,5.4665,5.4733,5.4844,5.4856,5.4711,5.471,5.4708,0,5.4451,5.4505,5.4557,5.457,5.4595,5.4619,5.4631,5.465,5.467,5.4697,5.471,5.474,5.4757,5.478,5.4779,5.4752,5.484,5.4802,5.4843,5.4843,5.4861,5.486,5.4978,5.4872,5.4872,5.4872,5.4871,0,5.4536,5.4582,5.4587,5.4618,5.4669,5.4666,5.4716,5.4725,5.4743,5.4776,5.4762,5.4793,5.4789,5.4821,5.482,5.487,5.4877,5.488,5.4879,5.4882,5.4882,5.4893,5.4888,5.4875,5.4874,5.4873,5.4873,0,5.4617,5.4622,5.4678,5.4698,5.4705,5.4741,5.4759,5.4789,5.4794,5.4836,5.4846,5.4853,5.489,5.4891,5.4932,5.4932,5.4993,5.4986,5.4987,5.4986,5.5026,5.5023,5.5156,5.5174,5.5055,5.5056,5.5057,0,5.4672,5.4707,5.4733,5.4755,5.4769,5.4804,5.4825,5.4824,5.4846,5.4875,5.4902,5.4938,5.4966,5.5025,5.5034,5.5066,5.506,5.5105,5.5064,5.5067,5.5062,5.506,5.5064,5.5112,5.5114,5.5115,5.5115,0,5.477,5.4771,5.4803,5.4837,5.4863,5.4889,5.4913,5.4932,5.4933,5.4959,5.4998,5.502,5.5064,5.51,5.5132,5.5143,5.513,5.5128,5.514,5.5143,5.5142,5.5144,5.5009,5.5125,5.5124,5.5123,5.5123,5.5122,5.484,5.4871,5.4895,5.4932,5.495,5.4974,5.5004,5.5014,5.5046,5.5083,5.508,5.5122,5.5144,5.5186,5.52,5.5234,5.5218,5.5234,5.5238,5.5242,5.5248,5.5137,5.5239,5.5239,5.5239,5.5238,5.5238,0,5.4938,5.4953,5.4987,5.5022,5.5051,5.5038,5.5065,5.509,5.5128,5.5151,5.518,5.5225,5.526,5.5273,5.5307,5.5331,5.5327,5.5341,5.5339,5.5342,5.5259,5.5246,5.5344,5.5344,5.5344,5.5344,5.5344,5.5344,5.4992,5.5045,5.505,5.5112,5.5126,5.517,5.5186,5.5208,5.5226,5.5278,5.5308,5.5316,5.5335,5.5371,5.5403,5.5406,5.5419,5.5436,5.5437,5.5358,5.5348,5.5338,5.5326,5.5439,5.5439,5.5518,5.5518,5.5519]}]]